World > North America > United States > Nebraska

Keith County, Nebraska Regional Weather

Lat: 41.19N, Lon: 101.64W
Wx Zone: NEZ057Web Search
Keith County Weather Warning NWS WEATHER ALERT FOR THE KEITH COUNTY, NE AREA - Issued: 1110 AM CDT Fri Apr 16 2021 Keith County Weather Warning  

Helpful Tip: Abbreviated, 7 Day, 14 Day Forecasts. There is a weather forecast for every taste.

Feedback


°F Click to change Keith County hourly weather to Imperial units.Click to change Keith County hourly weather to Metric units. °C
Keith County Weather Map
UTC Time: 4/16/2021, 16:44
Your Time:

Keith County, NE Regional Weather

Expires:202104161700;;645362
ASUS43 KOAX 161610
RWRNE 

WEATHER ROUNDUP FOR NEBRASKA
NATIONAL WEATHER SERVICE OMAHA NE
1100 AM CDT FRI APR 16 2021

NOTES: SATELLITE DATA IS BEING USED TO AUGMENT CLOUD COVER ABOVE
       12000 FEET.
       "FAIR" INDICATES FEW OR NO CLOUDS BELOW 12,000 FEET WITH NO
       SIGNIFICANT WEATHER AND/OR OBSTRUCTIONS TO VISIBILITY.

   

NEZ057>060-069>072-079>082-161700-
SOUTHWEST NEBRASKA
  
CITY           SKY/WX    TMP DP  RH WIND       PRES   REMARKS
NORTH PLATTE   FLURRIES  36  32  85 N9        30.12R WCI  29          
IMPERIAL       FLURRIES  34  33  96 NW12      30.12S WCI  25          
LEXINGTON      LGT SNOW  34  33  96 NW7       30.11R WCI  28          
MCCOOK         CLOUDY    36  33  89 NW8       30.11S WCI  30          
OGALLALA       LGT RAIN  35  35  99 N12       30.14R WCI  27          
$$
 

SKY/WX - Weather  TMP - Temperature  DP - Dew Point  RH - Relative Humidity
WIND - Wind Direction/Speed PRES - Barometric Pressure VSB - Visibility
WCI - Wind Chill Index E13G22 Wind - East Wind 13 mph/Gusts of 22 mph